Погода в Индиге

Погода в Индиге : погода сейчас, прогноз погоды и архив. Всё, что Вы хотите узнать о погоде в Индиге!

Поиск расширенной информации на нашем сайте:

Другие новости

Новости СМИ2

Главная страница сайта

Новости сайта

03.07.2017

Напоминаем, что на нашем специализированном сайте Метеоцентр.Азия вы можете получить высокодетализированные автоматические прогнозы погоды по пунктам России, СНГ и мира в авиационном формате (включающие направление и скорость ветра, видимость, явления погоды, количество и форму облачности, нижнюю и верхнюю границу облачности).


Погода в Индиге - сегодня

Время (UTC), дата Ветер
(°,м/с) 
Видим.   Явления Облачность Т
(°С)
Тd
(°С)
f(%) Тe
(°С)
Pmin
(гПа)
dP
(гПа)
Po
(мм)
O2
(г/м3)
Тmin Tmax R s Состояние
почвы
12 18.07.18 250 (З) 8-10{11}  20000 м    ясно 
+18.9 +10.2 57 +20  1022.3  -0.7  766  287           
18 18.07.18 310 (СЗ) 0200 м  туман  ?/?  
+8.2 +8.2 100 +8  1023.2  0.9  767  299           
21 18.07.18 290 (З) 0500 м  туман  ясно 
+6.9 +6.9 100 +8  1023.5  0.3  767  300           
00 19.07.18 050 (СВ) 20000 м  {туман}  ясно 
+9.9 +9.3 96 +9  1024.6  1.1  768  297           
06 19.07.18 030 (СВ) 20000 м    1/1 300 м 
[St]
+11.5 +10.3 92 +11  1025.6  0.4  769  295           
09 19.07.18 010 (С) 20000 м    1/0 верхняя 
[Ci fib]
+14.1 +11.7 85 +17  1025.3  -0.3  769  292           
12 19.07.18 030 (СВ) 20000 м    1/1 600 м 
[Cu hum]
+15 +11.9 82 +17  1025.3  769  291           
18 19.07.18 070 (В) 20000 м    ясно 
+15.6 +12.9 84 +21  1024.9  -0.1  768  290           
21 19.07.18 130 (ЮВ) 20000 м    3/0 верхняя 
[Cs]
+13.6 +12.7 94 +17  1025.6  0.7  769  293           
00 20.07.18 130 (ЮВ) 20000 м    3/0 верхняя 
[Ci fib]
+11.7 +11.3 97 +13  1026.2  0.6  769  295           
06 20.07.18 080 (В) 20000 м    1/0 верхняя 
[Ci fib]
+18.2 +14 76 +25  1026.1  -0.3  769  288           
09 20.07.18 010 (С) 20000 м    4/1 600 м верхняя 
[Cu hum|Ci fib]
+17.6 +13.9 79 +24  1025.6  -0.5  769  288           
12 20.07.18 010 (С) 20000 м    4/0 верхняя 
[Ci fib]
+18.3 +14.1 76 +25  1024.6  -1  768  287           
18 20.07.18 130 (ЮВ) 20000 м    4/0 верхняя 
[Ci fib]
+19.5 +14.9 75 +28  1023.1  -0.3  767  285           
21 20.07.18 140 (ЮВ) 20000 м    6/0 верхняя 
[Cs]
+16.1 +14.3 89 +23  1022.9  -0.2  767  289           
00 21.07.18 120 (ЮВ) 20000 м    6/0 верхняя 
[Ci]
+14.4 +12.9 91 +19  1023  0.1  767  291           
06 21.07.18 210 (ЮЗ) 20000 м    1/0 верхняя 
[Ci fib]
+24.3 +14.4 54 +31  1021.3  -1.1  766  280           
09 21.07.18 210 (ЮЗ) 6{11}  20000 м    3/3 600 м 
[Cu hum]
+26.2 +12.8 43 +31  1020.8  -0.5  765  279           
12 21.07.18 020 (С) 3{10}  20000 м    ясно 
+21.4 +13.8 62 +28  1020  -0.8  765  283           
15 21.07.18 020 (С) 20000 м    ясно 
+21.2 +12.8 59 +26  1019.1  -0.9  764  283    +27.3       
18 21.07.18 120 (ЮВ) 20000 м    ясно 
+20.5 +15.3 72 +29  1018.6  -0.5  764  283           
21 21.07.18 120 (ЮВ) 20000 м    3/3 600 м 
[Sc]
+16.2 +13.7 85 +23  1018.2  -0.4  763  288           
09 22.07.18 230 (ЮЗ) 6{11}  20000 м    3/3 300 м 
[Cu med, cong]
+26.1 +13.3 45 +32  1017.5  -0.3  763  278           
12 22.07.18 300 (СЗ) 20000 м    4/3 600 м верхняя 
[Cu hum|Ci fib]
+23.4 +12.8 51 +28  1017  -0.5  762  281           
18 22.07.18 180 (Ю) 20000 м    ясно 
+21.1 +16.1 73 +31  1016.1  762  281           
Время (UTC), дата Ветер
(°,м/с) 
Видим.   Явления Облачность Т
(°С)
Тd
(°С)
f(%) Тe
(°С)
Pmin
(гПа)
dP
(гПа)
Po
(мм)
O2
(г/м3)
Тmin Tmax R s Состояние
почвы

Для получения пояснительной информации подведите курсор к названию столбца.

ПОГОДА в Индиге - архив

Всё, что Вы хотите узнать о погоде в Индиге - удобно и подробно!

Выберите нужную дату (начиная с 1 января 2015* года) и нажмите кнопку "Найти".
Будут отображены архивные сводки погоды по пункту Индига, начиная с указанной даты.


Отображать данные в формате CSV (для использования в таблицах Excel)


Внимание! Наш архив погоды предназначен исключительно для личного некоммерческого использования в познавательных целях. Если Вам необходимы официальные справки о состоянии погоды (для производственных, юридических, коммерческих и т.п. целей), обращайтесь в органы Росгидромета.

*Примечание: данная дата относится к архиву по метеостанциям СССР (Россия, СНГ, Балтия).
Архив по метеостанциям Зарубежной Европы и Азии (кроме Китая) хранится 10 дней, по другим регионам земного шара (Китай, Африка, Америка, Австралия, Океания) - 1 день.

Индига - район местоположения метеостанции


Название, широта, долгота, высота метеостанции:
Индига 67.7°ш. 48.7°д. 4 м над ур. моря [Российская Федерация]

Дополнительная информация

В oтличие oт бoльшинства пoгoдных сайтoв мы публикуем пoдрoбную метеoинфoрмацию в детальнoм прoфессиoнальнoм фoрмате.

Характеристики температуры и влажнoсти вoздуха измеряются на высoте 2 м в тени вдали oт зданий и деревьев.
Скoрoсть ветра измеряется на высoте 10 м (на урoвне рoста челoвека скoрoсть ветра ниже в 1.5-2 раза). Если метеoстанция нахoдится в гoрoде или в лесу, тo скoрoсть ветра занижена на 2-4 м/с пo сравнению с oткрытым местoм. Скoрoсть ветра над акватoриями крупных рек и oзёр, а также на вершинах хoлмoв на 2-5 м/с выше, чем в oбычных услoвиях.
Атмoсфернoе давление в разных тoчках местнoсти мoжет значительнo oтличаться oт давления на метеoстанции, в зависимoсти oт услoвий рельефа (при пoдъёме на 10 м давление пoнижается примернo на 1 мм рт.ст.).